Regional Weather Roundup
Issued by NWS

Home | Current Version | Previous Version | Graphics & Text | Print | Product List | Glossary On
Versions: 1 2 3 4 5 6 7 8 9 10 11 12 13 14 15 16 17 18 19 20 21 22 23 24 25 26 27 28 29 30 31 32 33 34 35 36 37 38 39 40 41 42 43 44 45 46 47 48 49 50
000
ASUS43 KMKX 130110
RWRWI

WISCONSIN REGIONAL WEATHER ROUNDUP
NATIONAL WEATHER SERVICE MILWAUKEE/SULLIVAN WI
700 PM CST FRI FEB 12 2016

NOTE: "FAIR" INDICATES FEW OR NO CLOUDS BELOW 12,000 FEET WITH NO
SIGNIFICANT WEATHER AND/OR OBSTRUCTIONS TO VISIBILITY.

WIZ001-002-006>008-014>016-023>028-130200-
NORTHWEST WISCONSIN

CITY           SKY/WX    TMP DP  RH WIND       PRES   REMARKS
SUPERIOR ARPT  CLEAR      1 -16  44 NW15      30.53R WCI -18
ASHLAND        PTCLDY     0 -12  57 NW6       30.46R WCI -12
HAYWARD        CLEAR     -1 -17  46 CALM      30.44R
SIREN          CLEAR      1 -16  44 NW6       30.51S WCI -10
CUMBERLAND     CLEAR      1 -17  42 NW10      30.45S WCI -14
RICE LAKE      CLEAR      1 -16  45 W5        30.48S WCI  -9
CHETEK         CLEAR      0 -15  49 MISG      30.47R
LADYSMITH      PTCLDY     1 -16  45 NW10      30.44R WCI -15
EAU CLAIRE     CLEAR      3 -15  43 NW8       30.48R WCI -10
MENOMONIE      CLEAR      5 -15  39 W7        30.50R WCI  -7
NEW RICHMOND   CLEAR      3 -14  44 NW10      30.50F WCI -13
OSCEOLA        MOCLDY     4 -14  42 NW10      30.55S WCI -11
$$

WIZ003>005-009-010-017-018-130200-
NORTH CENTRAL WISCONSIN

CITY           SKY/WX    TMP DP  RH WIND       PRES   REMARKS
MANITOWISH WTR CLOUDY    -3  -9  77 NW13G21   30.31S HAZE    WCI -22
ARBOR VITAE    CLEAR     -1 -10  67 NW8       30.31R WCI -16
WOODRUFF       CLEAR     -1 -10  67 NW8       30.31R WCI -16
RHINELANDER    CLEAR     -3 -14  59 W13       30.30R WCI -22
EAGLE RIVER    CLEAR     -3 -11  71 NW8       30.27S WCI -18
LAND O LAKES   LGT SNOW  -1  -7  78 NW7       30.27S WCI -15
PHILLIPS       CLEAR     -3 -15  57 NW6       30.36R WCI -15
TOMAHAWK       CLEAR     -3 -14  61 NW7       30.35R WCI -17
MEDFORD        CLEAR     -1 -14  55 NW13      30.35R WCI -20
MERRILL        PTCLDY     0 -15  50 NW5       30.37R WCI -10
$$

WIZ029-030-035-036-043>047-130200-
CENTRAL WISCONSIN

CITY           SKY/WX    TMP DP  RH WIND       PRES   REMARKS
WAUSAU         CLEAR      2 -12  52 NW10      30.36R WCI -14
MOSINEE        CLEAR      1 -11  55 NW17G23   30.37R WCI -19
MARSHFIELD     PTCLDY     1 -15  47 NW13      30.38R WCI -17
STEVENS POINT  PTCLDY     1 -14  49 NW7G16    30.38R WCI -11
WAUPACA        CLEAR      6 -12  42 NW16G23   30.39R WCI -12
WAUTOMA        CLEAR      5 -13  43 N10       30.40R WCI -10
WISC RAPIDS    PTCLDY     3 -14  45 N12       30.41R WCI -13
CAMP DOUGLAS   PTCLDY     5 -12  46 NW13      30.42R WCI -12
$$

WIZ011>013-019>022-031-037>040-048>050-130200-
NORTHEAST WISCONSIN

CITY           SKY/WX    TMP DP  RH WIND       PRES   REMARKS
ANTIGO         CLEAR     -3 -14  59 NW14G20   30.31R WCI -23
SHAWANO        CLEAR      4 -13  43 NW9       30.38R WCI -10
OCONTO         PTCLDY     3 -13  48 NW12      30.37R WCI -14
STURGEON BAY   PTCLDY     1 -13  51 NW20      30.34R WCI -20
GREEN BAY      CLEAR      4 -11  50 NW16G28   30.37R WCI -15
MANITOWOC      CLEAR      6  -7  54 NW17G26   30.34R WCI -13
APPLETON       PTCLDY     3 -15  43 NW15G22   30.33R WCI -15
CLINTONVILLE   PTCLDY     3 -15  43 NW14G21   30.38R WCI -15
OSHKOSH        CLEAR      6 -10  47 N17G23    30.35R WCI -13
$$

WIZ032>034-041-042-053>061-130200-
SOUTHWEST WISCONSIN

CITY           SKY/WX    TMP DP  RH WIND       PRES   REMARKS
LA CROSSE      PTCLDY     7 -10  46 N14       30.50R WCI -10
SPARTA         CLEAR      6 -10  46 NW8       30.47R WCI  -7
VIROQUA        PTCLDY     4 -11  48 NW9       30.41R WCI -10
BOSCOBEL       CLEAR     11  -9  40 NW10      30.47R WCI  -3
PRAIRIE DU CHI CLEAR     10  -7  46 NW14      30.49R WCI  -7
PLATTEVILLE    CLEAR     11  -4  50 NW15G21   30.40R WCI  -5
$$

WIZ056-057-062-063-064-067-068-130200-
SOUTH CENTRAL WISCONSIN

CITY           SKY/WX    TMP DP  RH WIND       PRES   REMARKS
REEDSBURG      CLEAR      6 -10  46 NW10G16   30.41R WCI  -8
BARABOO/DELLS  CLEAR      7 -12  41 NW10      30.39R WCI  -8
LONE ROCK      CLEAR     10  -9  42 NW14G24   30.44R WCI  -6
MINERAL POINT  CLEAR     10  -9  40 NW14      30.38R WCI  -5
MADISON        CLEAR      8  -8  48 NW12      30.37R WCI  -7
MIDDLETON      CLEAR     10  -6  47 NW12G18   30.38R WCI  -5
WATERTOWN      CLEAR      8  -7  50 NW17      30.35R WCI -10
MONROE         CLEAR     12  -4  48 NW9G16    30.35R WCI   0
JANESVILLE     CLEAR     14  -2  48 N16G23    30.35R WCI  -2
$$

WIZ051-052-058>065-066-070>072-130200-
SOUTHEAST WISCONSIN

CITY           SKY/WX    TMP DP  RH WIND       PRES   REMARKS
MILWAUKEE      CLEAR     11  -7  44 NW17G28   30.33R WCI  -6
WAUKESHA       CLEAR      7  -8  51 NW16G22   30.33R WCI -11
MILWAUKEE/TIMM CLEAR      9  -9  43 NW14G23   30.34R WCI  -8
RACINE         CLEAR     11  -8  42 NW20      30.34R WCI  -7
BURLINGTON     CLEAR      9  -8  47 N14G20    30.34R WCI  -8
KENOSHA        CLEAR     11  -5  48 NW18G26   30.33R WCI  -7
FOND DU LAC    CLEAR      7  -9  48 N17       30.36R WCI -12
SHEBOYGAN      CLEAR      6 -10  47 N13       30.34R WCI -10
WEST BEND      CLEAR      9  -9  43 NW14G26   30.33R WCI  -8
JUNEAU         CLEAR      7  -9  49 NW13G18   30.35R WCI -10
$$

LSZ147-162-130200-
LAKE SUPERIOR

STATION/POSITION TIME  TEMP    WIND        PRES    WAVE
                       AIR SEA DIR/SP/G            HT/PER
                 (UTC) (F)     (DEG/KT/KT) (MB)    (FT/S)
DEVILS ISLAND    0100    5     320/ 24/ 29 1033.1R
SAXON HARBOR     0020    6                 1030.8R
$$

LMZ867-665-643>646-130200-
LAKE MICHIGAN

STATION/POSITION TIME  TEMP    WIND        PRES    WAVE
                       AIR SEA DIR/SP/G            HT/PER
                 (UTC) (F)     (DEG/KT/KT) (MB)    (FT/S)
CHAMBERS ISLAND  0000    3     300/ 13/ 22 1026.8R
SISTER BAY       0005    3     340/ 32/ 39   N/A
ALGOMA LAKESHORE 0011          330/ 21/ 27   N/A
KEWAUNEE LAKESHO 0000    7                 1025.5R
SHEBOYGAN LAKESH 0100    8     340/ 19/ 24 1029.3R
PORT WASHINGTON  0000   12     320/ 14/ 24 1026.8
MILWAUKEE LAKESH 0010   12     310/ 14/ 19   N/A
KENOSHA   LAKESH 0100   12     330/ 19/ 25 1026.8R
$$

TC  - TEMPERATURE IN CELSIUS
VSB - VISIBILITY IN STATUTE MILES
WCI - WIND CHILL INDEX
HX  - HEAT INDEX




USA.gov is the U.S. government's official web portal to all federal, state and local government web resources and services.